This is the latest recevied weather packets stored in our database for station/object W8BS. If no packets are shown the sender has not sent any weather packets the latest 10 day(s).
| Time | Temp. | Humidity | Pressure | Rain* | Wind** | Luminosity | Snow |
|---|---|---|---|---|---|---|---|
| 1777598192 | 5° C | 99% | 1014.1 hPa | 0 mm | - | 0 W/m² | - |
| 1777597892 | 5° C | 99% | 1013.9 hPa | 0 mm | - | 0 W/m² | - |
| 1777597592 | 5° C | 99% | 1013.8 hPa | 0 mm | - | 0 W/m² | - |
| 1777597288 | 5.56° C | 99% | 1014.1 hPa | 3.05 mm | - | 0 W/m² | - |
| 1777596983 | 5.56° C | 99% | 1014.1 hPa | 4.83 mm | - | 0 W/m² | - |
| 1777596680 | 6.11° C | 99% | 1013.9 hPa | 3.05 mm | - | 0 W/m² | - |
| 1777596377 | 6.11° C | 99% | 1013.8 hPa | 1.27 mm | - | 0 W/m² | - |
| 1777596074 | 6.11° C | 99% | 1013.8 hPa | 0 mm | - | 0 W/m² | - |
| 1777595769 | 6.11° C | 98% | 1013.8 hPa | 0 mm | - | 0 W/m² | - |
| 1777595465 | 6.11° C | 98% | 1013.7 hPa | 0 mm | - | 0 W/m² | - |
| 1777595162 | 6.11° C | 98% | 1013.5 hPa | 0 mm | - | 0 W/m² | - |
| 1777594858 | 6.11° C | 98% | 1013.5 hPa | 0 mm | - | 0 W/m² | - |
| 1777594554 | 6.11° C | 98% | 1013.3 hPa | 0 mm | - | 0 W/m² | - |
| 1777594251 | 6.11° C | 97% | 1013.5 hPa | 0 mm | - | 1 W/m² | - |
| 1777593946 | 6.11° C | 96% | 1013.2 hPa | 0 mm | - | 3 W/m² | - |
| 1777593643 | 6.67° C | 96% | 1013.4 hPa | 0 mm | - | 6 W/m² | - |
| 1777593339 | 6.67° C | 94% | 1013.4 hPa | 0 mm | - | 9 W/m² | - |
| 1777593033 | 6.67° C | 93% | 1012.8 hPa | 0 mm | - | 13 W/m² | - |
| 1777592732 | 6.67° C | 95% | 1013.4 hPa | 0 mm | - | 21 W/m² | - |
| 1777592428 | 6.67° C | 96% | 1013.2 hPa | 0 mm | - | 28 W/m² | - |
| 1777592124 | 6.67° C | 96% | 1013.2 hPa | 0 mm | - | 27 W/m² | - |
| 1777591821 | 6.67° C | 95% | 1013.2 hPa | 0 mm | - | 30 W/m² | - |
| 1777591517 | 6.67° C | 93% | 1013.3 hPa | 0 mm | - | 36 W/m² | - |
| 1777591214 | 6.67° C | 92% | 1013.4 hPa | 0 mm | - | 39 W/m² | - |
| 1777590909 | 6.67° C | 93% | 1013.2 hPa | 0 mm | - | 43 W/m² | - |
* Rain latest hour (hover to see other rain measurements)
** Current wind speed in m/s (hover to see current wind gust speed)